User: anonymous   Login
Location: Plymouth
(43.7570°N, 71.6890°W)
Time: 00:33:23
(UTC-04:00)
Language:

COSMOS 2406 - Orbit

View from above orbital plane
View from above orbital plane
View from above satellite
View from above satellite

Ground track
Ground track

The orbit data is extracted from the following two-line orbital elements,

1 28352U 04021A   16207.13773565  .00000313  00000-0  19870-3 0  9995
2 28352  71.0037  87.5125 0016575 241.0419 118.9040 14.11451322624697
Epoch (UTC): 25 July 2016 03:18:20
Eccentricity: 0.0016575
inclination: 71.0037°
perigee height: 842 km
apogee height: 866 km
right ascension of ascending node: 87.5125°
argument of perigee: 241.0419°
revolutions per day: 14.11451322
mean anomaly at epoch: 118.9040°
orbit number at epoch: 62469

The dashed part of the orbit path shows where the satellite is in the earth's shadow,  

DLR